This demonstration page uses our WeatherBlox Daily Observations layout. Learn more.

Left ArrowRight Arrow

Hourly Observations for August 6, 2021

Temp ( °F °C ) Dew Point ( °F °C ) Humidity (%) Winds ( mph kmh ) Pressure ( in mb ) Visibility ( mi km ) Precip ( " mm )
12:54 am 00:54 Clear 72 22.2 65 18.3 79 79 SSE 7 11 29.87 1012 9 14 0.00 0.00
1:54 am 01:54 Clear 73 22.8 64 17.8 74 74 SW 7 11 29.85 1011 9 14 0.00 0.00
2:54 am 02:54 Clear 72 22.2 64 17.8 76 76 NE 12 19 29.91 1013 9 14 0.00 0.00
3:54 am 03:54 Clear with Light Rain 74 23.3 64 17.8 71 71 NNE 5 7 29.93 1013 10 16 0.00 0.00
4:54 am 04:54 Mostly Clear 74 23.3 64 17.8 71 71 Calm 29.90 1013 10 16 0.00 0.00
5:54 am 05:54 Mostly Clear with Light Rain 72 22.2 66 18.9 82 82 SE 5 7 29.93 1014 9 14 0.01 0.25
6:54 am 06:54 Sunny with Light Rain 72 22.2 66 18.9 82 82 E 5 7 29.95 1014 7 11 0.00 0.00
7:54 am 07:54 Sunny 72 22.2 66 18.9 82 82 E 3 6 29.94 1014 7 11 0.00 0.00
8:54 am 08:54 Sunny 76 24.4 66 18.9 72 72 S 13 20 29.92 1013 8 13 0.00 0.00
9:54 am 09:54 Sunny 79 26.1 67 19.4 67 67 S 15 24 29.91 1013 8 13 0.00 0.00
10:54 am 10:54 Sunny 82 27.8 68 20 63 63 S 14 22 29.90 1013 8 13 0.00 0.00
11:54 am 11:54 Sunny 84 28.9 68 20 59 59 S 14 22 29.90 1012 9 14 0.00 0.00
12:54 pm 12:54 Sunny 87 30.6 70 21.1 57 57 S 9 15 29.88 1012 9 14 0.00 0.00
1:54 pm 13:54 Sunny 92 33.3 70 21.1 49 49 SSW 14 22 29.85 1011 9 14 0.00 0.00
2:54 pm 14:54 Sunny 93 33.9 68 20 44 44 SSW 13 20 29.83 1010 10 16 0.00 0.00
3:54 pm 15:54 Sunny 94 34.4 66 18.9 40 40 S 18 30 29.82 1010 10 16 0.00 0.00
4:54 pm 16:54 Sunny 94 34.4 65 18.3 38 38 S 13 20 29.81 1010 10 16 0.00 0.00
5:54 pm 17:54 Sunny 92 33.3 66 18.9 43 43 S 17 28 29.80 1009 10 16 0.00 0.00
6:54 pm 18:54 Sunny 90 32.2 67 19.4 47 47 S 16 26 29.78 1009 10 16 0.00 0.00
7:54 pm 19:54 Sunny 87 30.6 68 20 53 53 SSE 12 19 29.78 1009 10 16 0.00 0.00
8:54 pm 20:54 Clear 84 28.9 67 19.4 57 57 SSE 10 17 29.79 1009 10 16 0.00 0.00
9:54 pm 21:54 Clear 82 27.8 66 18.9 58 58 S 13 20 29.80 1009 10 16 0.00 0.00
10:54 pm 22:54 Clear 79 26.1 65 18.3 62 62 S 13 20 29.80 1009 10 16 0.00 0.00
11:54 pm 23:54 Clear 76 24.4 65 18.3 69 69 S 9 15 29.81 1009 10 16 0.00 0.00

Powered by AerisWeather